Weather Roundup
Issued by NWS Chicago, IL

Home | Current Version | Previous Version | Text Only | Print | Product List | Glossary Off
Versions: 1 2 3 4 5 6 7 8 9 10 11 12 13 14 15 16 17 18 19 20 21 22 23 24 25 26 27 28 29 30 31 32 33 34 35 36 37 38 39 40 41 42 43 44 45 46 47 48 49 50

000
NZUS59 KLOT 262108
HRRLOT

CHICAGO AREA WEATHER ROUNDUP
NATIONAL WEATHER SERVICE CHICAGO/ROMEOVILLE IL
400 PM CDT SUN MAR 26 2017

NOTE: "FAIR" INDICATES FEW OR NO CLOUDS BELOW 12,000 FEET WITH NO
SIGNIFICANT WEATHER AND/OR OBSTRUCTIONS TO VISIBILITY.

* THESE STATIONS ARE NOT UNDER NWS QUALITY CONTROL. THEY ALSO MAY NOT
  REPORT WEATHER SUCH AS PRECIPITATION OR FOG.

ILZ005-006-012>014-019>023-262200-
NORTHEAST ILLINOIS

CITY           SKY/WX    TMP DP  RH WIND       PRES   REMARKS
OHARE          CLOUDY    62  50  64 SW13      29.79F
MIDWAY         CLOUDY    60  51  72 SW13G20   29.81S
AURORA         CLOUDY    57  51  80 SW9       29.82S
LANSING*       CLOUDY    60  54  79 W17       29.82S
JOLIET*        CLOUDY    57  53  84 SW8       29.83S
WAUKEGAN       CLOUDY    51  51 100 E3        29.80S FOG
DUPAGE AIRPORT CLOUDY    57  53  86 SW13      29.80S
WHEELING       CLOUDY    61  53  75 SW10      29.80F
KANKAKEE*      CLOUDY    58  51  76 SW12      29.84S
MORRIS*        CLOUDY    56  51  84 SW3       29.81F
LEWIS AIRPORT* CLOUDY    56  54  93 SW12      29.82S
$$

WIZ051-052-058>065-066-070>072-262200-
SOUTHEAST WISCONSIN

CITY           SKY/WX    TMP DP  RH WIND       PRES   REMARKS
MILWAUKEE      FOG       45  42  89 NE6       29.82S VSB 1
KENOSHA*       CLOUDY    51  50  96 CALM      29.80F FOG
RACINE*        CLOUDY    45  43  93 N5        29.83F FOG
WAUKESHA       LGT RAIN  43  43 100 E7        29.82F FOG
WEST BEND      LGT RAIN  41  41 100 NE5       29.82F
$$

INZ001>003-010>013-019-020-262200-
NORTHWEST INDIANA

CITY           SKY/WX    TMP DP  RH WIND       PRES   REMARKS
GARY*          PTSUNNY   64  48  55 W12G23    29.82S
MICHIGAN CITY* NOT AVBL
RENSSELAER*    NOT AVBL
VALPARAISO     LGT RAIN  60  56  86 SW6       29.82F
$$

LMZ740>746-262200-
SOUTHERN LAKE MICHIGAN

STATION/POSITION TIME  SKY/WX   TEMP WIND        PRES    VSBY
                                AIR  DIR/SP/G
                 (UTC)          (F)  (DEG/KT/KT) (MB)    (MI)
HARRISON CRIB    2040            61  210/ 15/ 18   N/A
BURNHAM HARBOR   2100            60  190/ 11/ 15   N/A
CALUMET HARBOR   2048            60  220/  7/ 15 1009.0R
BURNS HARBOR     2040            60  180/  8/ 11 1010.2S
MICHIGAN CITY    2040            58  190/  6/  7   N/A
$$

ABBREVIATIONS USED IN REMARKS
   TC - TEMPERATURE IN CELSIUS
  WCI - WIND CHILL INDEX
   HX - HEAT INDEX
  VSB - VISIBILITY
$$




USA.gov is the U.S. government's official web portal to all federal, state and local government web resources and services.